Flag for Germany

Past Weather in Wismar, Mecklenburg-Western Pomerania, Germany — Yesterday and Last 2 Weeks

Now
72 °F

Passing clouds.


Feels Like: 75 °F
Forecast: 81 / 62 °F
Wind: 6 mph from Northeast

Location: Luebeck-Blankensee
Current Time: Aug 14, 2020 at 10:45:48 am
Latest Report: Aug 14, 2020 at 10:20 am
Visibility: N/A
Pressure29.92 "Hg
Humidity: 69%
Dew Point: 61 °F
Location of WismarLocation

Past Weather in Wismar — Graph

°F

Wismar Temperature Yesterday

Maximum temperature yesterday: 84 °F (at 2:20 pm)
Minimum temperature yesterday: 59 °F (at 6:50 am)
Average temperature yesterday: 76 °F

High & Low Weather Summary for the Past Weeks

 TemperatureHumidityPressure
High90 °F (Aug 11, 4:20 pm)100% (Aug 8, 6:50 am)30.21 "Hg (Aug 8, 6:50 am)
Low54 °F (Jul 31, 6:50 am)27% (Aug 6, 3:20 pm)29.86 "Hg (Aug 2, 4:50 pm)
Average76 °F53%30.05 "Hg
* Reported Jul 30 9:20 am — Aug 14 9:20 am, Wismar. Weather by CustomWeather, © 2020

Note: Actual official high and low records may vary slightly from our data, if they occured in-between our weather recording intervals... More about our weather records

Wismar Weather History for the Previous 24 Hours

Scroll right to see more
 ConditionsComfort  
Time TempWeatherWind HumidityBarometerVisibility
9:20 am
Fri, Aug 14
68 °FSunny.6 mph73%29.92 "Hg10 mi
8:20 am66 °FSunny.6 mph78%29.92 "Hg10 mi
7:20 am63 °FSunny.6 mph83%29.92 "Hg10 mi
8:50 pm
Thu, Aug 13
72 °FClear.5 mph65%29.92 "Hg10 mi
8:20 pm73 °FSunny.8 mph61%29.92 "Hg10 mi
7:50 pm75 °FSunny.10 mph57%29.92 "Hg10 mi
7:20 pm77 °FSunny.13 mph54%29.92 "Hg10 mi
6:50 pm79 °FSunny.12 mph51%29.92 "Hg10 mi
6:20 pm79 °FSunny.13 mph54%29.95 "Hg10 mi
5:50 pm81 °FSunny.13 mph51%29.95 "Hg10 mi
5:20 pm81 °FSunny.15 mph51%29.95 "Hg10 mi
4:50 pm81 °FSunny.15 mph51%29.95 "Hg10 mi
4:20 pm82 °FSunny.15 mph48%29.95 "Hg10 mi
3:50 pm82 °FSunny.15 mph48%29.95 "Hg10 mi
3:20 pm82 °FSunny.14 mph48%29.95 "Hg10 mi
2:20 pm84 °FSunny.14 mph48%29.95 "Hg10 mi
1:50 pm82 °FSunny.12 mph48%29.98 "Hg10 mi
1:20 pm82 °FSunny.13 mph48%29.98 "Hg10 mi
12:50 pm82 °FPassing clouds.10 mph45%29.98 "HgN/A
12:20 pm82 °FPassing clouds.10 mph45%29.98 "HgN/A
11:50 am82 °FPassing clouds.10 mph40%29.98 "HgN/A
11:20 am81 °FPassing clouds.9 mph45%29.98 "HgN/A
10:50 am77 °FSunny.9 mph47%30.01 "Hg10 mi
10:20 am75 °FSunny.8 mph54%30.01 "Hg10 mi
Weather by CustomWeather, © 2020

See weather overview